User: anonymous
Location: Muenchen
(48.1800°N, 11.5800°E)
Time: 10:04:12
(UTC+02:00)
Language:

Tiros 1 - Orbit

View from above orbital plane
View from above orbital plane
View from above satellite
View from above satellite

Ground track
Ground track

The orbit data is extracted from the following two-line orbital elements,

1 00029U 60002B   14203.77613183 -.00000064  00000-0  21799-4 0  2755
2 00029 048.3801 042.2322 0024208 008.9740 351.1600 14.73251361900486
Epoch (UTC): 22 July 2014 18:37:37
Eccentricity: 0.0024208
inclination: 48.3801°
perigee height: 633 km
apogee height: 668 km
right ascension of ascending node: 42.2322°
argument of perigee: 8.9740°
revolutions per day: 14.73251361
mean anomaly at epoch: 351.1600°
orbit number at epoch: 90048

The dashed part of the orbit path shows where the satellite is in the earth's shadow,  

DLR